Retour au catalogue

STARLINK-5173

ActifCommunicationsVLEO
NORAD 54059·PAYLOAD·🇺🇸 United States

Lancé Oct 20, 2022 depuis Cape Canaveral Space Force Station

Loading…

Prochains Passages (prochaines 24 heures)

TLE

FraisSource: CelesTrak SupGP

Époque: Sep 14, 2026, 21:33 UTC

1 54059C 22136J   26257.89840278  .00002726  00000+0  80518-4 0  2574
2 54059  53.1573 203.6664 0001475 110.0459   6.3542 15.34396750    17

Suivez STARLINK-5173 en temps réel avec AllMySat

Download on the App Store